• Join FlightAware (Why Join?)
  • Login
  • US Flag GB Flag 
08:17 EDT


 

Airport Tracker/Info


-or-


 

Live Flight TrackerFlight Track Log ✈ N693PD ✈ 18-May-2013 ✈ KRYY - KORL

Flight Track Log - Related Links

Times and Time Zones

All times are in EDT time to prevent confusion due to time zone crossing. See the N693PD flight status page for this flight to view local times or setup timezone preferences in your user account.

Time Position Orientation Groundspeed Altitude Reporting Facility
EDT Latitude Longitude Course Direction KTS MPH feet Rate Location/Type
08:49 33.9667 -84.5000 176° South 165 190 4,800  Level Atlanta TRACON
08:51 33.9040 -84.5470 212° Southwest  Level FlightAware Approximate
08:51 33.8667 -84.4167 212° Southwest 243 280 5,100  Level Atlanta TRACON
08:52 33.8000 -84.4000 168° South 240 276 5,100  Level Atlanta TRACON
08:54 33.6729 -84.3808 160° South  Level Estimated
08:54 33.6833 -84.4000 180° South 237 273 5,100  Level Atlanta TRACON
08:55 33.6089 -84.3755 176° South  Level FlightAware Approximate
08:55 33.6000 -84.4000 180° South 259 298 5,000  Level Atlanta TRACON
08:56 33.5333 -84.4000 180° South 237 273 5,100 480 Climbing Atlanta TRACON
08:57 33.4833 -84.4000 180° South 219 252 6,000 480 Climbing Atlanta TRACON
08:58 33.4167 -84.3833 168° South 240 276 6,100 540 Climbing Atlanta TRACON
08:59 33.3500 -84.3500 157° South 225 259 7,100 900 Climbing Atlanta TRACON
09:00 33.3097 -84.3347 162° South 219 252 7,800 900 Climbing Atlanta Center
09:01 33.2514 -84.3094 160° South 219 252 8,800 960 Climbing Atlanta Center
09:02 33.1928 -84.2847 161° South 224 258 9,800 960 Climbing Atlanta Center
09:03 33.1325 -84.2572 159° South 231 266 10,800 600 Climbing Atlanta Center
09:04 33.0678 -84.2347 164° South 231 266 11,100 120 Climbing Atlanta Center
09:05 32.9947 -84.2022 160° South 250 288 11,100  Level Atlanta Center
09:06 32.9322 -84.1675 155° Southeast 256 295 11,100 300 Level Atlanta Center
09:07 32.8633 -84.1428 163° South 262 302 11,700 720 Climbing Atlanta Center
09:08 32.7986 -84.1178 162° South 262 302 12,600 900 Climbing Atlanta Center
09:09 32.7381 -84.0906 159° South 249 287 13,600 960 Climbing Atlanta Center
09:10 32.6797 -84.0683 162° South 239 275 14,600 960 Climbing Atlanta Center
09:11 32.6211 -84.0439 161° South 229 264 15,600 900 Climbing Atlanta Center
09:12 32.5647 -84.0217 162° South 224 258 16,500 900 Climbing Atlanta Center
09:13 32.5083 -83.9944 158° South 224 258 17,500 840 Climbing Atlanta Center
09:14 32.4542 -83.9725 161° South 218 251 18,200 900 Climbing Atlanta Center
09:16 32.3544 -83.9303 160° South 216 249 20,000 1,020 Climbing Jacksonville Center
09:17 32.3003 -83.9078 161° South 216 249 21,000 900 Climbing Jacksonville Center
09:18 32.2461 -83.8850 160° South 206 237 21,900 900 Climbing Jacksonville Center
09:19 32.1919 -83.8597 158° South 206 237 22,800 540 Climbing Jacksonville Center
09:20 32.1339 -83.8372 162° South 212 244 23,000 60 Climbing Jacksonville Center
09:21 32.0692 -83.8094 160° South 231 266 23,000  Level Jacksonville Center
09:22 31.9986 -83.7794 160° South 253 291 23,000  Level Jacksonville Center
09:23 31.9297 -83.7517 161° South 265 305 23,000  Level Jacksonville Center
09:24 31.8797 -83.7342 163° South 269 310 23,000  Level Jacksonville Center
09:24 31.8672 -83.7219 140° Southeast 265 305 23,000  Level Jacksonville Center
09:25 31.7944 -83.6967 164° South 270 311 23,000  Level Jacksonville Center
09:26 31.7278 -83.6669 159° South 269 310 23,000  Level Jacksonville Center
09:27 31.6528 -83.6419 164° South 271 312 23,000  Level Jacksonville Center
09:28 31.5778 -83.6072 158° South 273 314 23,000  Level Jacksonville Center
09:29 31.5069 -83.5772 160° South 276 318 23,000  Level Jacksonville Center
09:30 31.4319 -83.5475 161° South 274 315 23,000  Level Jacksonville Center
09:31 31.3633 -83.5178 160° South 276 318 23,000  Level Jacksonville Center
09:32 31.2883 -83.4906 163° South 275 316 23,000  Level Jacksonville Center
09:33 31.2172 -83.4586 159° South 276 318 23,000  Level Jacksonville Center
09:34 31.1403 -83.4289 162° South 276 318 23,000  Level Jacksonville Center
09:35 31.0736 -83.3994 159° South 273 314 23,000  Level Jacksonville Center
09:36 30.9986 -83.3725 163° South 272 313 23,000  Level Jacksonville Center
09:38 30.8733 -83.3211 161° South 293 337 23,000  Level Jacksonville Center
09:39 30.8044 -83.2917 160° South 287 330 23,000  Level Jacksonville Center
09:40 30.7525 -83.2286 134° Southeast 264 304 23,000  Level Jacksonville Center
09:41 30.7089 -83.1536 124° Southeast 264 304 23,000  Level Jacksonville Center
09:42 30.6653 -83.0786 124° Southeast 274 315 23,000  Level Jacksonville Center
09:43 30.6236 -83.0036 123° Southeast 279 321 23,000  Level Jacksonville Center
09:44 30.5547 -82.9650 154° Southeast 264 304 23,000  Level Jacksonville Center
09:45 30.4858 -82.9286 156° South 264 304 23,000  Level Jacksonville Center
09:46 30.4147 -82.8878 154° Southeast 269 310 23,000  Level Jacksonville Center
09:47 30.3458 -82.8517 156° South 269 310 23,000  Level Jacksonville Center
09:48 30.2769 -82.8133 154° Southeast 274 315 23,000  Level Jacksonville Center
09:49 30.2081 -82.7747 154° Southeast 274 315 23,000  Level Jacksonville Center
09:50 30.1411 -82.7389 155° Southeast 279 321 23,000  Level Jacksonville Center
09:51 30.0700 -82.7006 155° Southeast 279 321 23,000 -240 Level Jacksonville Center
09:52 29.9950 -82.6647 158° South 279 321 22,600 -840 Descending Jacksonville Center
09:53 29.9197 -82.6217 154° Southeast 290 334 21,400 -1,200 Descending Jacksonville Center
09:54 29.8444 -82.5814 155° Southeast 296 341 20,200 -1,200 Descending Jacksonville Center
09:55 29.7692 -82.5433 156° South 296 341 19,000 -1,200 Descending Jacksonville Center
09:56 29.6897 -82.5006 155° Southeast 296 341 17,900 -1,020 Descending Jacksonville Center
09:57 29.6144 -82.4603 155° Southeast 296 341 17,000 -1,020 Descending Jacksonville Center
09:58 29.5392 -82.4175 154° Southeast 296 341 15,900 -1,080 Descending Jacksonville Center
09:59 29.4597 -82.3797 158° South 296 341 14,900 -1,080 Descending Jacksonville Center
10:00 29.3842 -82.3372 154° Southeast 296 341 13,800 -1,140 Descending Jacksonville Center
10:00 29.3319 -82.3136 158° South 295 339 13,000 -1,020 Descending Jacksonville Center
10:01 29.3111 -82.2972 146° Southeast 296 341 12,800 -1,080 Descending Jacksonville Center
10:02 29.2419 -82.2642 157° South 291 335 11,700 -1,140 Descending Jacksonville Center
10:03 29.1667 -82.2194 153° Southeast 296 341 10,600 -1,020 Descending Jacksonville Center
10:04 29.1244 -82.1558 127° Southeast 272 313 9,700 -960 Descending Jacksonville Center
10:05 29.0739 -82.0825 128° Southeast 272 313 8,700 -900 Descending Jacksonville Center
10:06 29.0275 -82.0139 128° Southeast 272 313 7,900 -840 Descending Jacksonville Center
10:07 28.9792 -81.9550 133° Southeast 261 300 7,100 -480 Descending Jacksonville Center
10:08 28.9411 -81.8936 125° Southeast 261 300 7,000 -60 Descending Jacksonville Center
10:09 28.8989 -81.8347 129° Southeast 248 285 7,000  Level Jacksonville Center
10:10 28.8525 -81.7689 129° Southeast 248 285 7,000 -120 Level Jacksonville Center
10:11 28.8000 -81.7167 139° Southeast 242 278 6,800 -600 Descending Orlando TRACON
10:12 28.7333 -81.6833 156° South 231 266 5,800 -960 Descending Orlando TRACON
10:13 28.6833 -81.6500 150° Southeast 221 254 4,900 -900 Descending Orlando TRACON
10:14 28.6167 -81.6000 147° Southeast 224 258 4,000 -480 Descending Orlando TRACON
10:15 28.5667 -81.5667 150° Southeast 222 255 4,000 -480 Level Orlando TRACON
10:16 28.5000 -81.5333 156° South 219 252 3,000 -960 Descending Orlando TRACON
10:17 28.4667 -81.5000 139° Southeast 202 232 2,000 -540 Descending Orlando TRACON
10:18 28.5000 -81.4500 53° Northeast 147 169 2,000 -300 Level Orlando TRACON
10:19 28.5167 -81.4167 60° Northeast 134 154 1,500 -600 Descending Orlando TRACON
10:20 28.5333 -81.3833 60° Northeast 122 140 900 -600 Descending Orlando TRACON
10:21 28.5333 -81.3500 90° East 108 124 300 -600 Descending Orlando TRACON
10:23 28.5455 -81.3329 90° East  Level Estimated
10:30 28.5455 -81.3329 90° East  Level Estimated
10:31 28.5455 -81.3329 90° East  Level Estimated
10:32 28.5455 -81.3329 90° East  Level Estimated
10:33 28.5455 -81.3329 90° East  Level Estimated